www.pogodaiklimat.ru

Погода и климат >> Архив погоды >> Бразилия >> Floriano


ПОГОДА в Floriano

  • Прогноз погоды в Floriano
  • Монитор погоды в Floriano
  • Климат города

АРХИВ ПОГОДЫ в Floriano

Время (UTC), дата Ветер
(напр.,м/с)
 
Видим.   Явления Облачность Т
(С)
Тd
(С)
f
(%)
Тe
(С)
Тes
(С)
Комфортность P
(гПа)
Po
(гПа)
Тmin
(С)
Tmax
(С)
R
(мм)
R24
(мм)
S
(см)
13 9.10 В 2
{5}
н/о н/о +35.3 +13.0 26 +36 +36 очень
жарко
1012.9 998.8
14 9.10 В 2
{5}
н/о н/о +37.1 +13.0 24 +37 +37 очень
жарко
1012.1 998.1
15 9.10 ЮВ 2
{5}
н/о н/о +37.6 +11.5 21 +37 +37 очень
жарко
1011.1 997.1
17 9.10 Ю 2
{4}
н/о н/о +38.2 +10.4 19 +37 +37 очень
жарко
1008.3 994.4
16 9.10 ЮВ 2
{5}
н/о н/о +38.1 +10.0 18 +37 +37 очень
жарко
1009.5 995.6
18 9.10 В 1
{4}
н/о н/о +39.3 +9.9 17 +38 +38 очень
жарко
1007.4 993.6
19 9.10 ЮВ 2
{4}
н/о н/о +38.7 +9.2 17 +37 +37 очень
жарко
1007.0 993.1
20 9.10 ЮВ 1
{4}
н/о н/о +38.0 +8.8 17 +36 +36 очень
жарко
1006.8 992.9
21 9.10 ЮВ 1
{4}
н/о н/о +36.3 +8.9 19 +35 +35 очень
жарко
1007.1 993.1
23 9.10 ЮВ 1
{3}
н/о н/о +33.6 +8.3 21 +32 +32 жарко 1008.2 994.1
22 9.10 ЮВ 1
{2}
н/о н/о +34.9 +8.7 20 +33 +33 жарко 1007.5 993.5
00 10.10 Ю 1
{2}
н/о н/о +32.4 +8.0 22 +31 +31 жарко 1008.7 994.5
01 10.10 ЮВ 1
{2}
н/о н/о +30.9 +8.1 24 +30 +30 жарко 1009.1 994.9
02 10.10 ЮВ 1
{3}
н/о н/о +30.8 +7.9 24 +30 +30 жарко 1009.2 995.0
03 10.10 ЮВ 1
{3}
н/о н/о +29.9 +8.1 26 +29 +29 жарко 1008.6 994.3
05 10.10 штиль 0
{1}
н/о н/о +25.8 +11.5 41 +27 +27 жарко 1008.6 994.1
04 10.10 штиль 0
{2}
н/о н/о +26.8 +9.6 34 +27 +27 жарко 1008.6 994.2
06 10.10 В 1
{1}
н/о н/о +26.5 +9.1 33 +27 +27 жарко 1008.2 993.8
07 10.10 С 1
{2}
н/о н/о +25.6 +10.8 39 +27 +27 жарко 1009.1 994.6
08 10.10 В 1
{2}
н/о н/о +24.4 +13.3 50 +27 +27 жарко 1009.9 995.3
09 10.10 ЮВ 1
{2}
н/о н/о +25.5 +10.5 39 +26 +26 жарко 1011.1 996.6
15 10.10 В 1
{4}
н/о н/о +38.0 +13.1 23 +38 +38 очень
жарко
1009.9 996.0
17 10.10 ЮВ 1
{5}
н/о н/о +39.1 +10.6 18 +38 +38 очень
жарко
1006.8 993.0
16 10.10 ЮВ 2
{4}
н/о н/о +37.9 +10.5 19 +37 +37 очень
жарко
1008.1 994.2
18 10.10 ЮВ 2
{4}
н/о н/о +39.4 +10.3 17 +38 +38 очень
жарко
1006.1 992.3
19 10.10 В 2
{4}
н/о н/о +38.8 +10.5 18 +37 +37 очень
жарко
1005.7 991.9
20 10.10 ЮВ 1
{4}
н/о н/о +38.1 +10.5 19 +37 +37 очень
жарко
1005.8 991.9
21 10.10 В 1
{3}
н/о н/о +36.4 +10.5 21 +35 +35 очень
жарко
1006.2 992.3
23 10.10 Ю 1
{2}
н/о н/о +33.8 +10.3 24 +33 +33 жарко 1007.8 993.7
22 10.10 ЮВ 1
{2}
н/о н/о +35.0 +10.5 23 +34 +34 очень
жарко
1006.9 992.9
00 11.10 штиль 0
{2}
н/о н/о +30.7 +12.6 33 +32 +32 жарко 1008.5 994.3
01 11.10 штиль 0
{1}
н/о н/о +28.6 +11.1 34 +29 +29 жарко 1009.1 994.8
02 11.10 штиль 0
{1}
н/о н/о +28.2 +12.4 38 +30 +30 жарко 1009.1 994.7
03 11.10 штиль 0
{1}
н/о н/о +28.4 +14.9 44 +31 +31 душно 1009.2 994.8
05 11.10 штиль 0
{1}
н/о н/о +28.8 +11.8 35 +30 +30 жарко 1008.7 994.4
04 11.10 штиль 0
{1}
н/о н/о +28.1 +14.0 42 +30 +30 жарко 1009.1 994.7
06 11.10 З 1
{1}
н/о н/о +27.6 +14.7 45 +30 +30 жарко 1009.1 994.7
07 11.10 СЗ 1
{1}
н/о н/о +27.3 +15.4 48 +30 +30 душно 1009.5 995.1
08 11.10 ЮВ 1
{1}
н/о н/о +27.0 +13.4 43 +29 +29 жарко 1010.3 995.9
09 11.10 штиль 0
{1}
н/о н/о +27.5 +17.2 53 +31 +31 душно 1011.5 997.1
11 11.10 С 1
{2}
н/о н/о +30.0 +19.1 52 +35 +35 очень
душно
1012.8 998.5
10 11.10
{2}
н/о н/о +28.6 +19.4 58 1012.5 998.1
12 11.10 СВ 1
{3}
н/о н/о +32.0 +17.8 43 +36 +36 очень
душно
1013.0 998.8
13 11.10 СВ 2
{4}
н/о н/о +32.9 +17.6 40 +37 +37 очень
душно
1012.6 998.4
14 11.10 В 2
{4}
н/о н/о +35.7 +15.3 30 +37 +37 душно 1011.7 997.6
15 11.10 В 1
{4}
н/о н/о +36.0 +15.4 29 +38 +38 очень
душно
1010.8 996.8
17 11.10 ЮВ 1
{4}
н/о н/о +37.9 +12.8 22 +38 +38 очень
жарко
1007.6 993.7
16 11.10 В 2
{3}
н/о н/о +37.3 +14.4 26 +38 +38 душно 1008.9 995.0
18 11.10 Ю 1
{3}
н/о н/о +39.0 +14.0 23 +40 +40 очень
душно
1006.7 992.9
19 11.10 ЮВ 1
{3}
н/о н/о +38.0 +12.5 22 +38 +38 очень
жарко
1006.5 992.6
20 11.10 ЮВ 1
{3}
н/о н/о +37.9 +12.0 21 +37 +37 очень
жарко
1006.3 992.4
21 11.10 ЮВ 1
{2}
н/о н/о +36.2 +12.9 25 +36 +36 очень
жарко
1006.8 992.8
23 11.10 штиль 0
{1}
н/о н/о +31.6 +13.6 33 +33 +33 жарко 1008.2 994.0
22 11.10 Ю 1
{1}
н/о н/о +34.9 +12.7 26 +35 +35 очень
жарко
1007.4 993.4
00 12.10 штиль 0
{1}
н/о н/о +31.1 +14.3 36 +33 +33 душно 1009.0 994.8
01 12.10 штиль 0
{1}
н/о н/о +30.7 +16.3 42 +34 +34 очень
душно
1009.5 995.2
02 12.10 штиль 0
{2}
н/о н/о +29.2 +17.1 48 +33 +33 очень
душно
1009.8 995.5
03 12.10 В 1
{3}
н/о н/о +33.0 +12.7 29 +33 +33 жарко 1009.3 995.2
05 12.10 штиль 0
{2}
н/о н/о +30.3 +14.0 37 +32 +32 жарко 1009.0 994.7
04 12.10 В 1
{3}
н/о н/о +31.7 +12.6 31 +32 +32 жарко 1009.0 994.8
06 12.10 штиль 0
{1}
н/о н/о +28.6 +16.7 49 +32 +32 душно 1009.2 994.9
07 12.10 штиль 0
{1}
н/о н/о +27.5 +17.4 54 +32 +32 очень
душно
1009.5 995.1
08 12.10 штиль 0
{1}
н/о н/о +27.4 +17.8 56 +32 +32 очень
душно
1010.4 996.0
09 12.10 штиль 0
{1}
н/о н/о +27.9 +19.1 59 +33 +33 очень
душно
1011.7 997.3
11 12.10 СВ 1
{3}
н/о н/о +30.0 +19.7 54 +36 +36 очень
душно
1013.5 999.2
10 12.10 СВ 1
{2}
н/о н/о +28.7 +19.6 58 +35 +35 очень
душно
1013.0 998.6
12 12.10 СВ 1
{3}
н/о н/о +31.2 +19.5 50 +37 +37 очень
душно
1013.9 999.6
13 12.10 СВ 1
{2}
н/о н/о +32.0 +18.9 46 +37 +37 очень
душно
1013.9 999.6
14 12.10 СВ 2
{4}
н/о н/о +34.1 +15.6 33 +36 +36 душно 1013.0 998.9
15 12.10 ЮВ 2
{4}
н/о н/о +35.8 +14.2 28 +37 +37 душно 1011.6 997.6
17 12.10 В 1
{4}
н/о н/о +38.6 +14.4 24 +39 +39 душно 1009.1 995.2
16 12.10 С 1
{4}
н/о н/о +37.1 +14.5 26 +38 +38 душно 1010.4 996.4
18 12.10 ЮВ 1
{3}
н/о н/о +37.9 +13.1 23 +38 +38 очень
жарко
1008.4 994.5
19 12.10 ЮВ 1
{3}
н/о н/о +39.7 +14.0 22 +40 +40 очень
душно
1007.7 993.9
20 12.10 штиль 0
{3}
н/о н/о +38.7 +12.4 21 +38 +38 очень
жарко
1007.9 994.0
21 12.10 СВ 2
{4}
н/о н/о +34.7 +14.5 30 +36 +36 душно 1008.9 994.8
23 12.10 штиль 0
{2}
н/о н/о +32.9 +15.0 34 +35 +35 душно 1010.2 996.0
22 12.10 СВ 1
{4}
н/о н/о +33.7 +14.6 32 +35 +35 очень
жарко
1009.4 995.3
00 13.10 штиль 0 н/о н/о +32.2 +15.5 37 +35 +35 очень
душно
1010.8 996.6
01 13.10 штиль 0
{3}
н/о н/о +30.5 +16.4 43 +34 +34 очень
душно
1011.4 997.1
02 13.10 В 1
{3}
н/о н/о +30.6 +16.8 44 +34 +34 очень
душно
1011.9 997.6
03 13.10 штиль 0
{3}
н/о н/о +29.6 +17.3 48 +34 +34 очень
душно
1011.3 997.0
05 13.10 З 1
{1}
н/о н/о +29.2 +18.3 52 +34 +34 очень
душно
1010.4 996.1
04 13.10 штиль 0
{1}
н/о н/о +28.9 +17.4 50 +33 +33 очень
душно
1011.0 996.6
06 13.10 С 1
{2}
н/о н/о +28.0 +18.7 57 +33 +33 очень
душно
1010.8 996.4
07 13.10 СЗ 1
{2}
н/о н/о +28.3 +18.4 55 +33 +33 очень
душно
1011.6 997.2
08 13.10 СЗ 1
{2}
н/о н/о +27.6 +19.3 61 +33 +33 очень
душно
1012.2 997.8
09 13.10 штиль 0
{2}
н/о н/о +27.2 +19.7 64 +33 +33 очень
душно
1012.9 998.4
11 13.10 СЗ 1
{2}
н/о н/о +29.5 +19.6 55 +35 +35 очень
душно
1014.2 999.8
10 13.10 С 1
{2}
н/о н/о +28.0 +19.9 61 +34 +34 очень
душно
1013.5 999.1
12 13.10 З 1
{2}
н/о н/о +31.6 +19.0 47 +37 +37 очень
душно
1014.4 1000.1
13 13.10 В 1
{2}
н/о н/о +33.2 +18.4 42 +38 +38 очень
душно
1013.9 999.7
14 13.10 С 1
{3}
н/о н/о +33.6 +17.1 37 +37 +37 очень
душно
1013.0 998.8
15 13.10 З 1
{3}
н/о н/о +35.7 +16.0 31 +38 +38 очень
душно
1011.8 997.7
17 13.10 З 1
{3}
н/о н/о +37.5 +15.9 28 +39 +39 очень
душно
1009.1 995.2
16 13.10 В 1
{3}
н/о н/о +37.6 +16.6 29 +40 +40 очень
душно
1010.2 996.3
18 13.10 Ю 1
{3}
н/о н/о +37.1 +15.3 27 +38 +38 душно 1008.2 994.3
19 13.10 З 1
{4}
н/о н/о +38.4 +14.7 25 +39 +39 очень
душно
1007.9 994.0
20 13.10 ЮВ 1
{3}
н/о н/о +37.4 +14.6 26 +38 +38 душно 1008.3 994.4
21 13.10 штиль 0
{2}
н/о н/о +35.5 +14.7 29 +37 +37 душно 1008.7 994.7
23 13.10 штиль 0 н/о н/о +32.2 +15.8 37 +35 +35 очень
душно
1009.7 995.5
22 13.10 штиль 0
{1}
н/о н/о +33.3 +14.7 33 +35 +35 душно 1009.2 995.1
00 14.10 штиль 0
{1}
н/о н/о +29.6 +17.0 47 +33 +33 душно 1010.4 996.1
01 14.10 штиль 0
{1}
н/о н/о +28.6 +17.3 50 +33 +33 очень
душно
1010.7 996.3
02 14.10 штиль 0
{1}
н/о н/о +27.8 +16.8 51 +31 +31 душно 1010.6 996.2
03 14.10 штиль 0
{1}
н/о н/о +27.3 +16.8 53 +31 +31 душно 1010.4 996.0
05 14.10 СВ 1
{2}
н/о н/о +24.9 +18.2 66 +29 +29 душно 1010.3 995.8
04 14.10 ЮВ 1
{1}
н/о н/о +27.1 +16.4 52 +31 +31 душно 1009.9 995.5
06 14.10 С 1
{2}
н/о н/о +27.9 +19.5 60 +34 +34 очень
душно
1010.3 995.9
07 14.10 С 1
{2}
н/о н/о +26.9 +19.9 66 +33 +33 очень
душно
1010.7 996.3
08 14.10 штиль 0
{1}
н/о н/о +26.3 +20.1 69 +32 +32 очень
душно
1011.6 997.1
09 14.10 штиль 0
{1}
н/о н/о +25.7 +20.2 72 +32 +32 очень
душно
1011.7 997.2
11 14.10
{3}
н/о н/о +28.9 +19.8 58 1013.1 998.7
10 14.10 С 1
{1}
н/о н/о +27.5 +20.1 64 +34 +34 очень
душно
1012.4 998.0
12 14.10 С 1
{4}
н/о н/о +30.9 +19.5 51 +37 +37 очень
душно
1013.1 998.8
13 14.10 С 1
{3}
н/о н/о +32.9 +19.0 44 +38 +38 очень
душно
1012.8 998.6
14 14.10 СЗ 1
{3}
н/о н/о +33.0 +18.5 42 +38 +38 очень
душно
1012.1 997.9
15 14.10 СВ 1
{3}
н/о н/о +37.1 +17.9 32 +40 +40 очень
душно
1010.7 996.7
17 14.10 С 1
{4}
н/о н/о +36.6 +17.3 32 +40 +40 очень
душно
1008.0 994.0
16 14.10 В 1
{3}
н/о н/о +36.7 +17.0 31 +39 +39 очень
душно
1009.4 995.4
18 14.10 С 1
{3}
н/о н/о +36.6 +16.9 31 +39 +39 очень
душно
1007.3 993.3
19 14.10 СВ 1
{2}
н/о н/о +36.9 +16.3 30 +39 +39 очень
душно
1006.6 992.7
20 14.10 СВ 1
{2}
н/о н/о +37.0 +16.1 29 +39 +39 очень
душно
1006.4 992.5
21 14.10 З 1
{2}
н/о н/о +35.6 +16.4 32 +38 +38 очень
душно
1006.8 992.8
23 14.10 СЗ 1
{2}
н/о н/о +33.3 +17.1 38 +37 +37 очень
душно
1008.6 994.5
22 14.10 штиль 0
{1}
н/о н/о +33.7 +16.6 36 +37 +37 очень
душно
1007.6 993.5
00 15.10 СЗ 1
{3}
н/о н/о +32.8 +17.3 40 +37 +37 очень
душно
1008.7 994.6
01 15.10 штиль 0
{2}
н/о н/о +31.6 +17.6 43 +36 +36 очень
душно
1009.4 995.2
02 15.10 ЮЗ 1
{1}
н/о н/о +30.9 +17.9 46 +35 +35 очень
душно
1009.7 995.5
03 15.10 З 1
{1}
н/о н/о +30.2 +17.8 47 +34 +34 очень
душно
1009.5 995.2
05 15.10 С 2
{3}
н/о н/о +28.5 +19.8 59 +34 +34 очень
душно
1010.1 995.7
04 15.10 С 1
{4}
н/о н/о +29.7 +19.3 54 +35 +35 очень
душно
1010.1 995.8
06 15.10 С 1
{4}
н/о н/о +27.6 +20.2 64 +34 +34 очень
душно
1010.1 995.7
07 15.10 С 1
{3}
н/о н/о +26.9 +20.4 68 +33 +33 очень
душно
1010.8 996.4
08 15.10 штиль 0
{2}
н/о н/о +26.3 +20.6 71 +33 +33 очень
душно
1011.6 997.1
09 15.10 С 1
{2}
н/о н/о +26.0 +20.6 72 +32 +32 очень
душно
1011.9 997.4
11 15.10 С 1
{3}
н/о н/о +28.8 +20.4 60 +35 +35 очень
душно
1012.8 998.4
10 15.10 С 1
{3}
н/о н/о +27.2 +20.6 67 +34 +34 очень
душно
1012.8 998.3
12 15.10 СЗ 1
{2}
н/о н/о +29.6 +20.2 57 +36 +36 очень
душно
1013.3 998.9
13 15.10 С 1
{2}
н/о н/о +31.1 +20.3 53 +38 +38 очень
душно
1012.9 998.6
14 15.10 ЮЗ 1
{2}
н/о н/о +31.9 +19.9 49 +38 +38 очень
душно
1012.2 998.0
15 15.10 СЗ 1
{2}
н/о н/о +29.3 +21.0 61 +37 +37 очень
душно
1012.2 997.8
17 15.10 С 1
{3}
н/о н/о +32.5 +21.0 51 +40 +40 очень
душно
1009.4 995.2
16 15.10 СВ 1
{4}
н/о н/о +27.7 +21.9 71 +36 +36 очень
душно
1011.0 996.6
18 15.10 СВ 1
{2}
н/о н/о +33.5 +20.5 47 +40 +40 очень
душно
1008.1 994.0
19 15.10 Ю 1
{2}
н/о н/о +33.7 +19.6 44 +40 +40 очень
душно
1007.4 993.3
20 15.10 С 1
{2}
н/о н/о +33.9 +19.1 42 +39 +39 очень
душно
1007.1 993.0
21 15.10 штиль 0
{1}
н/о н/о +32.9 +19.4 45 +38 +38 очень
душно
1007.1 993.0
23 15.10 штиль 0
{1}
н/о н/о +30.2 +20.5 56 +37 +37 очень
душно
1008.7 994.4
22 15.10 штиль 0
{1}
н/о н/о +31.5 +20.0 51 +38 +38 очень
душно
1007.8 993.6
00 16.10 СВ 1
{2}
н/о н/о +30.2 +20.8 57 +37 +37 очень
душно
1009.5 995.2
01 16.10 С 2
{3}
н/о н/о +30.1 +20.8 58 +37 +37 очень
душно
1010.6 996.3
02 16.10 СВ 1
{5}
н/о н/о +28.6 +20.6 62 +35 +35 очень
душно
1010.6 996.2
03 16.10 С 2
{3}
н/о н/о +27.9 +20.6 65 +35 +35 очень
душно
1010.8 996.4
05 16.10 С 1
{4}
н/о н/о +26.4 +20.5 70 +33 +33 очень
душно
1009.8 995.3
04 16.10 С 2
{4}
н/о н/о +26.9 +20.5 68 +33 +33 очень
душно
1010.1 995.7
06 16.10 С 1
{3}
н/о н/о +26.0 +20.5 72 +32 +32 очень
душно
1009.5 995.0
07 16.10 С 1
{2}
н/о н/о +25.7 +20.4 73 +32 +32 очень
душно
1009.5 995.0
08 16.10 С 1
{3}
н/о н/о +25.0 +20.3 75 +31 +31 очень
душно
1010.3 995.8
09 16.10 СВ 1
{2}
н/о н/о +24.9 +20.2 75 +31 +31 очень
душно
1011.5 996.9
11 16.10 СВ 1
{3}
н/о н/о +28.2 +19.9 61 +34 +34 очень
душно
1012.2 997.8
10 16.10 СВ 1
{2}
н/о н/о +25.9 +20.1 70 +32 +32 очень
душно
1012.0 997.5

 

Местоположение метеостанции Floriano (Бразилия): широта -6.77 долгота -43.02 высота над уровнем моря 125 м.

В архиве по умолчанию представлена погода в Floriano за последнюю неделю. Архивные данные за месяц целиком и за предыдущие месяцы, начиная с января 2011 года, Вы можете получить, выбрав интересующий диапазон дат из раскрывающегося списка и нажав кнопку "Ввод!".


*Определитесь, кто Вы:
робот инопланетянин человек

Внимание! Время в таблицах - всемирное. Для получения местного времени необходимо прибавить поправку, которая в Floriano равна -3 ч.

Смотрите также архив погоды в соседних городах и на ближайших метеорологических станциях:

Погода в Floriano (Бразилия) (1 км)
Погода в Oeiras (Бразилия) (99 км)
Погода в Sao Pedro do Piaui (Бразилия) (100 км)
Погода в Valenca do Piaui (Бразилия) (148 км)
Погода в Colinas (Бразилия) (157 км)
Погода в Urucui (Бразилия) (166 км)
Погода в Picos (Бразилия) (173 км)
Погода в Picos (Бразилия) (182 км)
Погода в Teresina (Бразилия) (193 км)
Погода в Teresina (Бразилия) (194 км)

Пояснения к столбцам:

Ветер - указаны скорость ветра в м/с - средняя за 10 мин, порывы в срок и между сроками (в фигурных скобках) и направление, откуда дует ветер: С - северный, СВ - северо-восточный, В - восточный, ЮВ - юго-восточный, Ю - южный, ЮЗ - юго-западный, З - западный, СЗ - северо-западный.
Видимость - горизонтальная дальность видимости в метрах или километрах. При видимости от 1 до 10 км при отсутствии осадков обычно наблюдается дымка, при ухудшении видимости до 1 км и менее - туман. В сухую погоду видимость может ухудшаться дымом, пылью или мглою.
Явления - указаны атмосферные явления, наблюдавшиеся в срок или в последний час перед сроком; фигурными скобками обозначены явления, наблюдавшиеся между сроками (за 1-3 часа до срока); квадратными скобками обозначены град или гололедные отложения с указанием их диаметра в мм.
Облачность - указаны через наклонную черту общая и нижняя облачность в баллах и высота нижней границы облаков в метрах; квадратными скобками обозначены формы облаков: Ci - перистые, Cs - перисто-слоистые, Cc - перисто-кучевые, Ac - высококучевые, As - высокослоистые, Sc - слоисто-кучевые, Ns - слоисто-дождевые, Cu - кучевые, Cb - кучево-дождевые. Подробнее классификацию облаков см. в Атласе облаков (PDF).
T - Температура воздуха - температура, измеренная на высоте 2 м над землей.
Td - Температура точки росы - температура, при понижении до которой содержащийся в воздухе водяной пар достигнет насыщения.
f - Относительная влажность воздуха - влажноcть воздуха, измеренная на высоте 2 м над землей.
Te - Эффективная температура - температура, которую ощущает одетый по сезону человек в тени. Характеристика душности погоды. При расчете учитывается влияние влажности воздуха и скорости ветра на теплоощущения человека.
Tes - Эффективная температура на солнце - температура, которую ощущает человек, с поправкой на солнечный нагрев. Характеристика знойности погоды. Зависит от высоты солнца над горизонтом, облачности и скорости ветра. Ночью, в пасмурную погоду, а также при ветре 12 м/с и более поправка равна нулю.
P - Атмосферное давление - приведенное к уровню моря атмосферное давление.
Po - Атмосферное давление - измеренное на уровне метеостанции атмосферное давление.
Tmin - Минимальная температура - минимум температуры воздуха на высоте 2 м над землей.
Tmax - Максимальная температура - максимум температуры воздуха на высоте 2 м над землей.
R - Количество осадков - Количество выпавших осадков за период времени, мм. При наведении курсора мыши на число - период времени, за который выпало указанное количество осадков.
R24 - Количество осадков - Количество выпавших осадков за 24 часа, мм.
S - Снежный покров - Высота снежного покрова, см. При наведении курсора мыши на число - состояние снежного покрова и степень покрытия местности в баллах.